DW8078 Weather Reports


Display with metric or nautical units.
time (UTC)temp
F
wind
direction
speed
MPH
gust
MPH
rain 1hr
in
rain 24hr
in
rain mn
in
humidity
%
barometer
mb
20180815205101 62 15 0.0 1.0 0.00 0.00 0.00 84 1018.6
20180815203558 62 17 0.0 1.0 0.00 0.00 0.00 85 1018.6
20180815202058 63 360 0.0 5.0 0.00 0.00 0.00 84 1018.4
20180815200556 63 345 0.0 4.0 0.00 0.00 0.00 83 1018.3
20180815195057 64 348 0.0 5.0 0.00 0.00 0.00 83 1018.2
20180815193553 64 348 0.0 4.0 0.00 0.00 0.00 83 1018.0
20180815192053 64 345 0.0 6.0 0.00 0.00 0.00 83 1017.9
20180815190551 65 345 2.0 5.0 0.00 0.00 0.00 83 1017.8
20180815185049 65 10 0.0 0.0 0.00 0.00 0.00 83 1017.7
20180815183552 65 349 0.0 0.0 0.00 0.00 0.00 84 1017.5
20180815182046 66 355 0.0 0.0 0.00 0.00 0.00 83 1017.4
20180815180544 66 30 0.0 0.0 0.00 0.00 0.00 81 1017.1
20180815175044 66 29 0.0 0.0 0.00 0.01 0.00 82 1016.9
20180815173543 66 338 0.0 4.0 0.00 0.01 0.00 83 1016.9
20180815172044 66 327 1.0 8.0 0.00 0.01 0.00 83 1016.9
20180815170544 67 327 0.0 0.0 0.00 0.01 0.00 85 1016.7
20180815165040 67 327 0.0 0.0 0.00 0.01 0.00 85 1016.6
20180815163539 67 319 0.0 0.0 0.00 0.01 0.00 87 1016.5
20180815162038 67 317 0.0 1.0 0.00 0.01 0.00 88 1016.4
20180815160536 67 299 0.0 0.0 0.00 0.01 0.00 88 1016.3
20180815155035 67 290 0.0 0.0 0.00 0.01 0.00 87 1016.2
20180815153535 67 290 0.0 0.0 0.00 0.01 0.00 87 1016.0
20180815152034 67 314 0.0 0.0 0.00 0.01 0.00 87 1016.0
20180815150532 67 319 0.0 0.0 0.00 0.01 0.00 87 1016.0
20180815145031 67 355 0.0 0.0 0.00 0.01 0.00 87 1015.9
20180815143533 67 360 0.0 6.0 0.00 0.01 0.00 86 1015.6
20180815142029 68 329 4.0 7.0 0.00 0.01 0.00 84 1015.6
20180815140528 68 355 0.0 2.0 0.00 0.01 0.00 85 1015.4
20180815135031 67 360 0.0 5.0 0.00 0.01 0.00 82 1015.4
20180815133526 71 13 4.0 16.0 0.00 0.01 0.00 73 1015.2
20180815132027 72 307 7.0 12.0 0.00 0.01 0.00 68 1014.9
20180815130524 73 281 11.0 19.0 0.00 0.01 0.00 67 1014.9
20180815125024 73 319 7.0 12.0 0.00 0.01 0.00 68 1014.9
20180815123526 71 333 0.0 14.0 0.00 0.01 0.00 73 1014.9
20180815122023 71 329 7.0 19.0 0.00 0.01 0.00 69 1014.8
20180815120524 71 290 5.0 16.0 0.00 0.01 0.00 71 1014.9
20180815115020 70 312 11.0 18.0 0.00 0.02 0.00 72 1014.7
20180815113523 71 308 11.0 16.0 0.00 0.02 0.00 73 1014.6
20180815112019 70 335 12.0 20.0 0.00 0.02 0.00 71 1014.5
20180815110519 71 331 5.0 14.0 0.00 0.02 0.00 65 1014.2
20180815105016 72 333 5.0 15.0 0.00 0.02 0.00 63 1014.2
20180815103514 71 337 4.0 10.0 0.00 0.02 0.00 68 1014.2
20180815102012 70 342 4.0 12.0 0.00 0.02 0.00 71 1014.1
20180815100506 70 312 8.0 14.0 0.00 0.02 0.00 71 1014.1
20180815095005 70 327 11.0 19.0 0.00 0.02 0.00 71 1013.9
20180815093502 69 310 3.0 9.0 0.00 0.02 0.00 76 1013.9
20180815092001 69 326 4.0 9.0 0.00 0.02 0.00 75 1013.8
20180815090500 68 321 5.0 13.0 0.00 0.02 0.00 77 1013.8
20180815084955 68 322 7.0 15.0 0.00 0.02 0.00 77 1013.6
20180815083454 67 315 3.0 9.0 0.00 0.02 0.00 79 1013.6
20180815081952 67 312 3.0 12.0 0.00 0.02 0.00 78 1013.3
20180815080452 67 360 8.0 15.0 0.00 0.02 0.00 79 1013.2
20180815074947 66 309 4.0 8.0 0.00 0.04 0.00 81 1012.9
20180815073446 66 306 2.0 8.0 0.00 0.04 0.00 82 1012.9
20180815071944 66 289 0.0 9.0 0.00 0.04 0.00 82 1012.6
20180815070444 66 302 7.0 15.0 0.00 0.04 0.00 81 1012.5
20180815064940 65 311 9.0 15.0 0.00 0.06 0.00 83 1012.1
20180815063439 65 302 6.0 15.0 0.00 0.06 0.00 84 1012.1
20180815061941 64 307 3.0 12.0 0.00 0.06 0.00 85 1012.1
20180815060433 63 309 1.0 8.0 0.00 0.06 0.00 86 1012.1
20180815054931 63 273 3.0 11.0 0.00 0.08 0.00 86 1012.0
20180815053429 63 307 3.0 9.0 0.00 0.08 0.00 86 1011.8
20180815051931 62 290 0.0 6.0 0.00 0.08 0.00 87 1011.9
20180815050426 61 285 1.0 8.0 0.00 0.08 0.00 87 1011.7
20180815044921 61 307 2.0 9.0 0.00 0.10 0.00 87 1011.6
20180815043421 61 295 3.0 7.0 0.00 0.10 0.00 86 1011.6
20180815041918 61 304 0.0 6.0 0.00 0.10 0.00 86 1011.5
20180815040419 61 275 0.0 7.0 0.00 0.10 0.00 85 1011.4
20180815035211 61 292 0.0 3.0 0.00 0.12 0.00 85 1011.3
20180815021859 62 305 0.0 5.0 0.00 0.15 0.00 83 1010.6
20180815020503 61 291 2.0 6.0 0.00 0.15 0.00 83 1010.5
20180815014850 61 277 2.0 5.0 0.00 0.15 0.00 83 1010.5
20180815013353 61 290 0.0 4.0 0.00 0.15 0.00 83 1010.2
20180815011852 61 299 0.0 4.0 0.00 0.15 0.00 83 1010.4
20180815010351 61 277 0.0 0.0 0.00 0.15 0.00 83 1010.3
20180815004848 62 281 0.0 2.0 0.00 0.15 0.00 83 1010.2
20180815003347 62 290 0.0 3.0 0.00 0.15 0.00 83 1010.2
20180815001843 62 290 0.0 4.0 0.00 0.15 0.00 83 1010.3
20180815000341 63 283 0.0 5.0 0.00 0.15 0.00 82 1010.2
20180814234840 63 298 0.0 3.0 0.00 0.15 0.00 83 1010.2
20180814233339 63 303 0.0 3.0 0.00 0.15 0.00 83 1010.2
20180814231837 63 299 0.0 4.0 0.00 0.15 0.00 85 1010.2
20180814230337 63 267 1.0 4.0 0.00 0.15 0.00 86 1010.2
20180814224839 63 267 0.0 0.0 0.00 0.15 0.00 86 1010.3
20180814223334 64 267 0.0 0.0 0.00 0.15 0.00 86 1010.3
20180814221835 64 219 0.0 0.0 0.00 0.15 0.00 87 1010.2
20180814220331 64 175 0.0 0.0 0.00 0.15 0.00 87 1010.3
20180814214831 64 175 0.0 0.0 0.00 0.15 0.15 86 1010.2
20180814213332 64 175 0.0 0.0 0.00 0.15 0.15 86 1010.2
20180814211835 64 175 0.0 0.0 0.00 0.15 0.15 86 1010.1
20180814210330 64 175 0.0 0.0 0.00 0.15 0.15 85 1010.2